When you browse on this site, cookies collect data to enhance your experience and personalize the content and advertising you see.
Visit our Privacy Policy to learn more. By continuing to use the site, you agree to this use of cookies and data.
  • In France
  • List of Countries
  • For 7 days
  • Water Temperature
  • Satellite Maps
  • Weather Map
  • Weather Widgets
  • user-avatar
    Login

    Hourly Weather Smykovo

    Today, 24 February, Sunday

    Time Temperature Precipitation Wind Pressure Humidity
    00:00 -16°C° 0 mm 3 mps 758 mmHg 91%
    01:00 -16°C° 0 mm 3 mps 758 mmHg 90%
    02:00 -16°C° 0 mm 3 mps 757 mmHg 90%
    03:00 -16°C° 0 mm 3 mps 757 mmHg 90%
    04:00 -16°C° 0 mm 3 mps 757 mmHg 91%
    05:00 -16°C° 0 mm 3 mps 757 mmHg 91%
    06:00 -16°C° 0 mm 3 mps 756 mmHg 92%
    07:00 -15°C° 0 mm 3 mps 756 mmHg 93%
    08:00 -14°C° 0 mm 3 mps 756 mmHg 94%
    09:00 -12°C° 0 mm 3 mps 756 mmHg 95%
    10:00 -10°C° 0 mm 3 mps 756 mmHg 94%
    11:00 -9°C° 0 mm 3 mps 755 mmHg 94%
    12:00 -8°C° 0 mm 3 mps 755 mmHg 94%
    13:00 -7°C° 0 mm 3 mps 755 mmHg 93%
    14:00 -6°C° 0 mm 3 mps 755 mmHg 92%
    15:00 -6°C° 0 mm 3 mps 755 mmHg 91%
    16:00 -6°C° 0 mm 3 mps 754 mmHg 92%
    17:00 -5°C° 0 mm 3 mps 754 mmHg 93%
    18:00 -4°C° 0 mm 2 mps 754 mmHg 95%
    19:00 -4°C° 0 mm 2 mps 754 mmHg 95%
    20:00 -4°C° 0 mm 2 mps 753 mmHg 95%
    21:00 -5°C° 0 mm 3 mps 753 mmHg 96%
    22:00 -4°C° 0.1 mm 3 mps 752 mmHg 96%
    23:00 -4°C° 0.1 mm 3 mps 752 mmHg 96%

    Tomorrow, 25 February, Monday

    Time Temperature Precipitation Wind Pressure Humidity
    00:00 -2°C° 0.1 mm 3 mps 751 mmHg 96%
    01:00 -3°C° 0.1 mm 4 mps 751 mmHg 96%
    02:00 -2°C° 0.1 mm 4 mps 750 mmHg 96%
    03:00 -2°C° 0.1 mm 4 mps 749 mmHg 95%
    04:00 -2°C° 0.1 mm 5 mps 748 mmHg 95%
    05:00 -2°C° 0.1 mm 5 mps 748 mmHg 94%
    06:00 -2°C° 0.1 mm 5 mps 747 mmHg 93%
    07:00 -2°C° 0.4 mm 5 mps 746 mmHg 93%
    08:00 -2°C° 0.4 mm 5 mps 745 mmHg 93%
    09:00 -2°C° 0.4 mm 5 mps 745 mmHg 93%
    10:00 -2°C° 0.3 mm 5 mps 744 mmHg 95%
    11:00 -1°C° 0.3 mm 5 mps 744 mmHg 97%
    12:00 -1°C° 0.3 mm 4 mps 743 mmHg 99%
    13:00 -1°C° 0.1 mm 4 mps 743 mmHg 99%
    14:00 -1°C° 0.1 mm 5 mps 743 mmHg 99%
    15:00 -1°C° 0.1 mm 5 mps 742 mmHg 99%
    16:00 -1°C° 0 mm 4 mps 742 mmHg 97%
    17:00 -2°C° 0 mm 4 mps 742 mmHg 94%
    18:00 -1°C° 0 mm 3 mps 742 mmHg 91%
    19:00 -1°C° 0.1 mm 3 mps 742 mmHg 92%
    20:00 -1°C° 0.1 mm 3 mps 741 mmHg 93%
    21:00 -1°C° 0.1 mm 3 mps 741 mmHg 95%
    22:00 -1°C° 0.1 mm 3 mps 741 mmHg 95%
    23:00 -1°C° 0.1 mm 3 mps 741 mmHg 95%

    Day after tomorrow, 26 February, Tuesday

    Time Temperature Precipitation Wind Pressure Humidity
    00:00 -2°C° 0.1 mm 3 mps 741 mmHg 95%
    01:00 -2°C° 0 mm 3 mps 741 mmHg 95%
    02:00 -4°C° 0 mm 3 mps 740 mmHg 96%
    03:00 -4°C° 0 mm 3 mps 740 mmHg 96%
    04:00 -4°C° 0.1 mm 3 mps 740 mmHg 96%
    05:00 -4°C° 0.1 mm 3 mps 740 mmHg 96%
    06:00 -4°C° 0.1 mm 3 mps 739 mmHg 96%
    07:00 -2°C° 0.1 mm 3 mps 739 mmHg 96%
    08:00 -2°C° 0.1 mm 3 mps 739 mmHg 96%
    09:00 -2°C° 0.1 mm 3 mps 739 mmHg 95%
    10:00 -2°C° 0.1 mm 3 mps 739 mmHg 96%
    11:00 -1°C° 0.1 mm 3 mps 739 mmHg 98%
    12:00 -1°C° 0.1 mm 3 mps 739 mmHg 99%
    13:00 -1°C° 0.1 mm 3 mps 739 mmHg 98%
    14:00 -1°C° 0.1 mm 3 mps 739 mmHg 97%
    15:00 -1°C° 0.1 mm 3 mps 739 mmHg 97%
    16:00 -1°C° 0 mm 3 mps 739 mmHg 94%
    17:00 -1°C° 0 mm 3 mps 739 mmHg 92%
    18:00 -2°C° 0 mm 3 mps 739 mmHg 89%
    19:00 -2°C° 0 mm 3 mps 740 mmHg 90%
    20:00 -2°C° 0 mm 3 mps 740 mmHg 91%
    21:00 -2°C° 0 mm 3 mps 741 mmHg 92%
    22:00 -3°C° 0.1 mm 4 mps 741 mmHg 92%
    23:00 -3°C° 0.1 mm 4 mps 741 mmHg 93%

    27 February, Wednesday

    Time Temperature Precipitation Wind Pressure Humidity
    00:00 -4°C° 0.1 mm 5 mps 742 mmHg 93%
    01:00 -4°C° 0.1 mm 5 mps 742 mmHg 92%
    02:00 -4°C° 0.1 mm 6 mps 742 mmHg 91%
    03:00 -4°C° 0.1 mm 6 mps 743 mmHg 90%
    04:00 -5°C° 0.1 mm 6 mps 743 mmHg 89%
    05:00 -6°C° 0.1 mm 6 mps 744 mmHg 89%
    06:00 -8°C° 0.1 mm 6 mps 744 mmHg 89%
    07:00 -9°C° 0 mm 6 mps 745 mmHg 89%
    08:00 -10°C° 0 mm 6 mps 746 mmHg 89%
    09:00 -10°C° 0 mm 5 mps 746 mmHg 89%
    10:00 -11°C° 0 mm 5 mps 747 mmHg 89%
    11:00 -11°C° 0 mm 5 mps 747 mmHg 88%
    12:00 -10°C° 0 mm 4 mps 747 mmHg 87%
    13:00 -10°C° 0 mm 4 mps 747 mmHg 87%
    14:00 -10°C° 0 mm 4 mps 746 mmHg 87%
    15:00 -10°C° 0 mm 4 mps 746 mmHg 87%
    16:00 -10°C° 0 mm 3 mps 746 mmHg 88%
    17:00 -10°C° 0 mm 3 mps 746 mmHg 89%
    18:00 -10°C° 0 mm 2 mps 746 mmHg 90%
    19:00 -12°C° 0 mm 2 mps 746 mmHg 91%
    20:00 -12°C° 0 mm 2 mps 745 mmHg 92%
    21:00 -13°C° 0 mm 2 mps 745 mmHg 93%
    22:00 -12°C° 0 mm 2 mps 744 mmHg 93%
    23:00 -12°C° 0 mm 3 mps 743 mmHg 93%

    28 February, Thursday

    Time Temperature Precipitation Wind Pressure Humidity
    00:00 -10°C° 0 mm 3 mps 743 mmHg 93%
    01:00 -10°C° 0.1 mm 3 mps 742 mmHg 93%
    02:00 -9°C° 0.1 mm 3 mps 741 mmHg 94%
    03:00 -8°C° 0.1 mm 3 mps 741 mmHg 95%
    04:00 -8°C° 0.1 mm 3 mps 740 mmHg 95%
    05:00 -7°C° 0.1 mm 3 mps 740 mmHg 95%
    06:00 -7°C° 0.1 mm 3 mps 739 mmHg 95%
    07:00 -6°C° 0 mm 3 mps 739 mmHg 95%
    08:00 -5°C° 0 mm 3 mps 738 mmHg 95%
    09:00 -4°C° 0 mm 3 mps 738 mmHg 95%
    10:00 -4°C° 0 mm 3 mps 738 mmHg 94%
    11:00 -2°C° 0 mm 3 mps 737 mmHg 94%
    12:00 -1°C° 0 mm 3 mps 737 mmHg 94%
    13:00 -1°C° 0 mm 3 mps 736 mmHg 92%
    14:00 -1°C° 0 mm 3 mps 736 mmHg 91%
    15:00 -1°C° 0 mm 3 mps 735 mmHg 90%
    16:00 -1°C° 0 mm 3 mps 735 mmHg 91%
    17:00 -2°C° 0 mm 3 mps 735 mmHg 92%
    18:00 -2°C° 0 mm 2 mps 735 mmHg 93%
    19:00 -3°C° 0 mm 2 mps 734 mmHg 93%
    20:00 -3°C° 0 mm 2 mps 734 mmHg 94%
    21:00 -3°C° 0 mm 2 mps 733 mmHg 94%
    22:00 -3°C° 0 mm 2 mps 733 mmHg 95%
    23:00 -2°C° 0 mm 1 mps 733 mmHg 95%

    1 March, Friday

    Time Temperature Precipitation Wind Pressure Humidity
    00:00 -2°C° 0 mm 1 mps 732 mmHg 95%
    01:00 -2°C° 0 mm 1 mps 732 mmHg 95%
    02:00 -3°C° 0 mm 1 mps 732 mmHg 95%
    03:00 -5°C° 0 mm 0 mps 732 mmHg 96%
    04:00 -5°C° 0 mm 0 mps 732 mmHg 96%
    05:00 -5°C° 0 mm 0 mps 732 mmHg 96%
    06:00 -5°C° 0 mm 0 mps 732 mmHg 96%
    07:00 -4°C° 0 mm 0 mps 732 mmHg 96%
    08:00 -3°C° 0 mm 1 mps 732 mmHg 95%
    09:00 -3°C° 0 mm 1 mps 732 mmHg 95%
    10:00 -2°C° 0 mm 1 mps 732 mmHg 95%
    11:00 -1°C° 0 mm 1 mps 733 mmHg 95%
    12:00 0°C° 0 mm 1 mps 733 mmHg 96%
    13:00 -2°C° 0 mm 2 mps 733 mmHg 95%
    14:00 -1°C° 0 mm 2 mps 734 mmHg 95%
    15:00 -1°C° 0 mm 3 mps 734 mmHg 95%
    16:00 -2°C° 0 mm 2 mps 734 mmHg 94%
    17:00 -2°C° 0 mm 2 mps 735 mmHg 94%
    18:00 -2°C° 0 mm 2 mps 735 mmHg 93%
    19:00 -3°C° 0 mm 2 mps 736 mmHg 94%
    20:00 -3°C° 0 mm 2 mps 736 mmHg 94%
    21:00 -4°C° 0 mm 2 mps 736 mmHg 95%
    22:00 -4°C° 0 mm 2 mps 737 mmHg 95%
    23:00 -4°C° 0 mm 2 mps 737 mmHg 95%
    Show more